Regional Weather Roundup
Issued by NWS Cleveland, OH

Home | Current Version | Previous Version | Graphics & Text | Print | Product List | Glossary Off
Versions: 1 2 3 4 5 6 7 8 9 10 11 12 13 14 15 16 17 18 19 20 21 22 23 24 25 26 27 28 29 30 31 32 33 34 35 36 37 38 39 40 41 42 43 44 45 46 47 48 49 50

000
ASUS41 KCLE 021010
RWRCLE
OHIO REGIONAL WEATHER ROUNDUP
NATIONAL WEATHER SERVICE CLEVELAND, OH
600 AM EDT THU JUL 02 2015

NOTE: "FAIR" INDICATES FEW OR NO CLOUDS BELOW 12,000 FEET WITH NO
SIGNIFICANT WEATHER AND/OR OBSTRUCTIONS TO VISIBILITY.

OHZ001>008-015>018-024>027-034-035-043-044-021100-
   NORTHWEST OHIO

CITY           SKY/WX    TMP DP  RH WIND       PRES   REMARKS
DEFIANCE       MOCLDY    61  56  83 NE5       29.94S
FINDLAY        MOCLDY    63  60  90 NE9       29.92F
TOLEDO EXPRESS MOCLDY    59  57  93 NE3       29.94S
TOLEDO EXEC    MOCLDY    64  58  80 NE6       29.96R
LIMA           CLOUDY    61  59  93 NE6       29.92S
$$

OHZ009>014-019>023-028>033-038-089-021100-
   NORTHEAST OHIO

CITY           SKY/WX    TMP DP  RH WIND       PRES   REMARKS
CLE-HOPKINS    MOCLDY    62  59  90 N3        29.97R
CLE-LAKEFRONT  CLOUDY    65  59  81 E5        29.94R
CUY CO. ARPT   NOT AVBL
LORAIN-ELYRIA  MOCLDY    60  59  96 NE5       29.96R
ASHTABULA      MOCLDY    58  57  97 CALM      29.96R FOG
AKRON-CANTON   MOCLDY    59  56  89 N6        29.94F FOG
WOOSTER        PTCLDY    59  57  93 NE3       29.95S FOG
MANSFIELD      FOG       60  60 100 NE6       29.95S VSB 1/4
YOUNGSTOWN     CLOUDY    59  57  93 N5        29.94R
$$

OHZ042-051>053-060>062-070>072-077>081-021100-
  SOUTHWEST OHIO

CITY           SKY/WX    TMP DP  RH WIND       PRES   REMARKS
CINC-COVINGTON CLOUDY    69  67  93 CALM      29.89S FOG
CINC-LUNKEN    CLOUDY    67  66  97 NE3       29.89R
HAMILTON       MOCLDY    68  63  84 CALM      29.90R
DAYTON         CLOUDY    65  60  84 CALM      29.92R
WRIGHT-PAT AFB CLOUDY    65  61  87 NE3       29.91R
DAYTON GENERAL CLOUDY    66  60  81 NE7       29.90R
WILMINGTON     CLOUDY    64  60  87 E3        29.90R
$$

OHZ036-037-039>041-045>050-054>059-063>069-073>076-082>088-021100-
  CENTRAL AND SOUTHEAST OHIO

CITY           SKY/WX    TMP DP  RH WIND       PRES   REMARKS
COLUMBUS       CLOUDY    62  59  90 CALM      29.91F
OSU AIRPORT    PTCLDY    62  59  90 NE3       29.91F
BOLTON FIELD   NOT AVBL
RICKENBACK AFB NOT AVBL
NEWARK         PTCLDY    60  58  92 NE3       29.92S
MARION         MOCLDY    61  58  90 NE6       29.93S
LANCASTER      PTCLDY    58  56  93 CALM      29.92S FOG
ZANESVILLE     NOT AVBL
NEW PHILLY     MOCLDY    57  57 100 CALM      29.94S FOG
$$


USA.gov is the U.S. government's official web portal to all federal, state and local government web resources and services.